Central Park, NY

2:14 PM EDT on June 25, 2017 (GMT -0400)
Central Park

Weather History for KNYC - June, 2012

Change the Weather History Date:

Monday, June 11, 2012

  Actual Average Record
Temperature  
Mean Temperature 71 °F 70 °F  
Max Temperature 77 °F 78 °F 95 °F (1973)
Min Temperature 64 °F 62 °F 46 °F (1972)
Degree Days  
Heating Degree Days 0 1  
Month to date heating degree days 15 14  
Since 1 June heating degree days 15 14  
Since 1 July heating degree days 3715 4745  
Cooling Degree Days 6 6  
Month to date cooling degree days 39 55  
Year to date cooling degree days 154 124  
Since 1 June cooling degree days 39 55  
Growing Degree Days 20 (Base 50)    
Moisture  
Dew Point 58 °F    
Average Humidity 63    
Maximum Humidity 87    
Minimum Humidity 38    
Precipitation  
Precipitation 0.00 in 0.16 in 1.14 in (1911)
Month to date precipitation 0.86 1.76  
Year to date precipitation 15.36 21.55  
Snow  
Snow 0.00 in 0.00 in 0.00 in (2002)
Month to date snowfall 0.0 0.0  
Since 1 July snowfall 7.4 25.8  
Snow Depth 0.00 in    
Sea Level Pressure  
Sea Level Pressure 30.22 in    
Wind  
Wind Speed 5 mph (SSE)    
Max Wind Speed 14 mph    
Max Gust Speed 23 mph    
Visibility 10 miles    
Events      
T = Trace of Precipitation, MM = Missing Value Source: NWS Daily Summary

Daily Weather History Graph

Daily Weather History Graph

Search for Another Location

Airport or City:

Trip Planner

Search our weather history database for the weather conditions in past years. The results will help you decide how hot, cold, wet, or windy it might be!

Date:

Astronomy

Jun. 11, 2012 Rise Set
Actual Time 5:24 AM EDT 8:27 PM EDT
Civil Twilight 4:50 AM EDT 9:00 PM EDT
Nautical Twilight 4:08 AM EDT 9:43 PM EDT
Astronomical Twilight 3:18 AM EDT 10:33 PM EDT
Moon 12:44 AM EDT (6/11) 1:13 PM EDT (6/11)
Length of Visible Light 16h 10m
Length of Day
15h 03m
Waning Gibbous, 48% of the Moon is Illuminated
Jun 11
Waning Gibbous
Jun 19
New
Jun 26
First Quarter
Jul 3
Full
Jul 10
Last Quarter

Hourly Weather History & Observations

Time (EDT) Temp. Dew Point Humidity Pressure Visibility Wind Dir Wind Speed Gust Speed Precip Events Conditions
12:51 AM 69.1 °F 61.0 °F 75% 30.19 in 10.0 mi Variable 3.5 mph - N/A   Overcast
1:51 AM 69.1 °F 61.0 °F 75% 30.17 in 10.0 mi SSE 4.6 mph - N/A   Overcast
2:51 AM 68.0 °F 59.0 °F 73% 30.17 in 10.0 mi Variable 4.6 mph - N/A   Clear
3:51 AM 66.9 °F 61.0 °F 81% 30.18 in 10.0 mi Variable 5.8 mph - N/A   Clear
4:51 AM 66.0 °F 61.0 °F 84% 30.19 in 9.0 mi East 3.5 mph - N/A   Partly Cloudy
5:39 AM 66.9 °F 62.1 °F 84% 30.22 in 7.0 mi East 4.6 mph - N/A   Overcast
5:51 AM 66.9 °F 62.1 °F 84% 30.20 in 7.0 mi Variable 4.6 mph - N/A   Overcast
6:51 AM 68.0 °F 62.1 °F 81% 30.22 in 8.0 mi Variable 5.8 mph - N/A   Overcast
7:51 AM 68.0 °F 61.0 °F 78% 30.24 in 8.0 mi Variable 5.8 mph - N/A   Mostly Cloudy
8:51 AM 71.1 °F 61.0 °F 70% 30.23 in 9.0 mi Variable 5.8 mph - N/A   Clear
9:51 AM 71.1 °F 60.1 °F 68% 30.25 in 10.0 mi Variable 3.5 mph - N/A   Scattered Clouds
10:51 AM 73.0 °F 60.1 °F 64% 30.26 in 10.0 mi Variable 6.9 mph - N/A   Partly Cloudy
11:51 AM 75.0 °F 55.0 °F 50% 30.25 in 10.0 mi Variable 3.5 mph - N/A   Clear
12:51 PM 77.0 °F 52.0 °F 42% 30.25 in 10.0 mi SSE 9.2 mph - N/A   Clear
1:51 PM 75.0 °F 48.0 °F 38% 30.24 in 10.0 mi SSE 9.2 mph - N/A   Clear
2:51 PM 73.0 °F 52.0 °F 48% 30.24 in 10.0 mi South 3.5 mph - N/A   Overcast
3:51 PM 71.1 °F 53.1 °F 53% 30.23 in 10.0 mi South 6.9 mph - N/A   Overcast
4:51 PM 69.1 °F 55.0 °F 61% 30.23 in 10.0 mi SSE 8.1 mph 17.3 mph N/A   Overcast
5:51 PM 69.1 °F 57.0 °F 65% 30.21 in 10.0 mi North - - N/A   Overcast
6:51 PM 69.1 °F 55.0 °F 61% 30.21 in 10.0 mi North - - N/A   Overcast
7:51 PM 68.0 °F 55.9 °F 65% 30.22 in 10.0 mi Variable 4.6 mph - N/A   Overcast
8:51 PM 66.0 °F 55.9 °F 70% 30.22 in 10.0 mi Variable 4.6 mph - N/A   Scattered Clouds
9:51 PM 64.9 °F 57.0 °F 75% 30.22 in 10.0 mi SSE 8.1 mph - N/A   Mostly Cloudy
10:51 PM 64.9 °F 59.0 °F 81% 30.20 in 10.0 mi North - - N/A   Partly Cloudy
11:51 PM 64.0 °F 59.0 °F 84% 30.19 in 10.0 mi Calm Calm - N/A   Clear